Regional Weather Roundup
Issued by NWS Burlington, VT

Home | Current Version | Previous Version | Text Only | Print | Product List | Glossary On
Versions: 1 2 3 4 5 6 7 8 9 10 11 12 13 14 15 16 17 18 19 20 21 22 23 24 25 26 27 28 29 30 31 32 33 34 35 36 37 38 39 40 41 42 43 44 45 46 47 48 49 50
000
ASUS41 KBTV 231030
RWRBTV
VERMONT REGIONAL WEATHER ROUNDUP
NATIONAL WEATHER SERVICE BURLINGTON VT
600 AM EDT WED AUG 23 2017

NOTE: "FAIR" INDICATES FEW OR NO CLOUDS BELOW 12,000 FEET WITH NO
SIGNIFICANT WEATHER AND/OR OBSTRUCTIONS TO VISIBILITY.

* THESE REPORTS ARE NOT UNDER NWS QUALITY CONTROL AND/OR DO NOT
  REPORT WEATHER SUCH AS PRECIPITATION AND FOG.

VTZ001>019-231100-
_____VERMONT_____


CITY           SKY/WX    TMP DP  RH WIND       PRES   REMARKS
BURLINGTON     PTCLDY    67  53  61 W7G18     29.70R
MONTPELIER     CLOUDY    67  57  70 SW14G25   29.72R
MORRISVILLE    CLOUDY    63  56  78 VRB5      29.70R
ST. JOHNSBURY*   N/A     67  67 100 MISG      29.64R
LYNDONVILLE*   CLOUDY    65  63  94 W9G18     29.70R
MIDDLEBURY*    FAIR      62  56  81 S3        29.73R
RUTLAND*       CLOUDY    68  60  75 SW8       29.73R
SPRINGFIELD    MOCLDY    65  63  93 CALM      29.71R FOG
HIGHGATE*      FAIR      63  57  81 SW6       29.68R
NEWPORT*       FAIR      61  56  86 SW5       29.70R
BENNINGTON     CLOUDY    65  57  75 SW9G18    29.78R
ISLAND POND*     N/A     64 N/A N/A NW8         N/A
GALLUP MILLS*    N/A     64 N/A N/A MISG        N/A
UNION VILLAGE*   N/A     64 N/A N/A MISG        N/A
MT. MANSFIELD*   N/A     48 N/A N/A W36G49      N/A

_____LAKE CHAMPLAIN_____


CITY           SKY/WX    TMP DP  RH WIND       PRES   REMARKS
BURTON ISLAND*   N/A     66  57  72 SW7         N/A
COLCHESTER RF*   N/A     68  57  68 W18         N/A
DIAMOND ISL*     N/A     68  52  56 SW15G22     N/A

$$

NYZ007-026>031-035-052-083-087-231100-
_____NORTHERN NEW YORK_____


CITY           SKY/WX    TMP DP  RH WIND       PRES   REMARKS
PLATTSBURGH    CLEAR     65  55  70 W10G16    29.67R
SARANAC LAKE   CLOUDY    57  55  93 SW13G20   29.74R
MASSENA        MOCLDY    62  57  83 SW10      29.70R
OGDENSBURG*    FAIR      59  55  89 SW8       29.73R
POTSDAM*       CLEAR     59  59 100 W13       29.73R
STARK FALLS*     N/A     57 N/A N/A SW8         N/A
WATERTOWN      CLEAR     62  54  74 W12       29.77R
FT DRUM        CLEAR     57  53  84 SW5       29.77R
ALBANY         MOCLDY    67  57  70 NW7       29.78R
GLENS FALLS    PTCLDY    64  55  72 SW6       29.74R

$$
NHZ002-005-011-231100-
_____NEW HAMPSHIRE_____


CITY           SKY/WX    TMP DP  RH WIND       PRES   REMARKS
LEBANON        MOCLDY    69  65  86 S12       29.68R
KEENE            N/A    N/A N/A N/A MISG        N/A
MT WASHINGTON  FOG       50  50 100 W63         N/A  VSB 0
PLYMOUTH       FAIR      68  63  85 W3        29.67R
WHITEFIELD     PTCLDY    67  63  87 SW3       29.67R

$$

_____REGIONAL QUEBEC LOCATIONS_____


CITY           SKY/WX    TMP DP  RH WIND       PRES   REMARKS
MONTREAL       PTCLDY    63  59  88 SW17      29.64R
QUEBEC CITY    MOCLDY    66  63  88 W13       29.51R
SHERBROOKE     PTCLDY    63  61  94 W13G25    29.62R

_____REGIONAL ONTARIO LOCATIONS_____


CITY           SKY/WX    TMP DP  RH WIND       PRES   REMARKS
OTTAWA         PTCLDY    57  55  94 W12G18    29.69R

______KEY______
VSB  - VISIBILITY IN MILES
WCI  - WIND CHILL INDEX
HX   - HEAT INDEX
$$
NNNN



USA.gov is the U.S. government's official web portal to all federal, state and local government web resources and services.